period_start,C,m1,H,J0,J1,J2,J3,J4,J5,JA,JB,JC,JD,JJ,JK,JN,#
2014-05-02 00:00:18,0.06,0.98,0.00,14.54,21.24,22.73,6.33,31.00,1014.68,2062.03,3057.13,3092.97,3351.03,351.15,333.96,8.37,0000 0000 0000 0000 000000
2014-05-02 00:01:18,0.02,0.98,0.00,14.61,21.24,22.81,6.29,31.08,1014.68,2062.04,3057.05,3092.90,3351.01,350.56,333.69,8.37,0000 0000 0000 0000 000000
2014-05-02 00:02:18,0.04,0.98,0.00,14.65,21.24,22.72,6.05,31.04,1014.71,2062.04,3057.01,3092.73,3351.00,349.61,332.38,8.38,0000 0000 0000 0000 000000
2014-05-02 00:03:19,0.04,0.98,0.00,14.67,21.25,22.66,6.16,31.08,1014.70,2062.04,3056.96,3092.40,3350.99,350.13,332.83,8.39,0000 0000 0000 0000 000000
2014-05-02 00:04:19,0.10,0.98,0.00,14.71,21.25,22.67,6.18,30.96,1014.69,2062.05,3056.88,3092.21,3350.92,350.04,332.34,8.39,0000 0000 0000 0000 000000
2014-05-02 00:05:19,0.07,0.98,0.00,14.64,21.26,22.65,6.30,31.00,1014.69,2062.05,3056.45,3092.08,3350.62,351.13,333.48,8.40,0000 0000 0000 0000 000000
2014-05-02 00:06:19,0.14,0.98,0.00,14.48,21.26,22.66,6.22,31.17,1014.68,2062.05,3056.18,3092.03,3350.32,350.05,332.97,8.40,0000 0000 0000 0000 000000
2014-05-02 00:07:20,0.10,0.98,0.00,14.40,21.27,22.68,6.22,31.21,1014.69,2062.04,3056.07,3092.00,3350.15,349.70,332.74,8.41,0000 0000 0000 0000 000000
2014-05-02 00:08:20,0.03,0.98,0.00,14.37,21.27,22.68,6.23,31.04,1014.69,2062.02,3056.02,3092.00,3350.05,349.88,332.95,8.42,0000 0000 0000 0000 000000
2014-05-02 00:09:20,0.01,0.99,0.00,14.35,21.27,22.72,6.18,30.96,1014.69,2062.01,3056.00,3091.99,3350.02,349.97,333.04,8.42,0000 0000 0000 0000 000000
2014-05-02 00:10:20,0.00,0.99,0.00,14.38,21.27,22.69,6.14,31.13,1014.69,2062.02,3055.99,3091.97,3350.00,349.44,332.73,8.43,0000 0000 0000 0000 000000
2014-05-02 00:11:21,0.01,0.99,0.00,14.45,21.27,22.72,6.32,30.96,1014.71,2062.03,3055.90,3091.90,3350.00,350.61,333.19,8.43,0000 0000 0000 0000 000000
2014-05-02 00:12:21,0.05,0.99,0.00,14.48,21.27,22.79,6.24,31.04,1014.68,2062.05,3055.48,3091.64,3349.97,350.06,333.41,8.44,0000 0000 0000 0000 000000
2014-05-02 00:13:21,0.14,0.99,0.00,14.53,21.27,22.75,6.39,31.25,1014.68,2062.02,3055.18,3091.29,3349.79,350.29,333.15,8.44,0000 0000 0000 0000 000000
2014-05-02 00:14:22,0.13,0.99,0.00,14.59,21.27,22.72,6.13,30.96,1014.69,2062.01,3055.06,3091.12,3349.37,349.88,332.69,8.45,0000 0000 0000 0000 000000
2014-05-02 00:15:22,0.09,0.99,0.00,14.66,21.28,22.71,6.17,31.08,1014.68,2062.01,3055.02,3091.04,3349.16,349.37,332.12,8.46,0000 0000 0000 0000 000000
2014-05-02 00:16:22,0.04,0.99,0.00,14.68,21.28,22.68,6.08,30.92,1014.68,2062.01,3054.97,3091.01,3349.06,349.64,332.71,8.46,0000 0000 0000 0000 000000
2014-05-02 00:17:22,0.02,0.99,0.00,14.71,21.29,22.70,6.23,31.08,1014.68,2062.01,3054.79,3091.00,3349.03,350.40,333.04,8.47,0000 0000 0000 0000 000000
2014-05-02 00:18:23,0.04,0.99,0.00,14.74,21.29,22.70,6.34,31.04,1014.68,2062.01,3054.40,3091.00,3349.01,350.37,332.98,8.47,0000 0000 0000 0000 000000
2014-05-02 00:19:23,0.06,0.99,0.00,14.67,21.29,22.73,6.20,31.00,1014.69,2062.02,3054.14,3090.98,3349.00,350.00,332.96,8.48,0000 0000 0000 0000 000000
2014-05-02 00:20:23,0.05,0.99,0.00,14.51,21.29,22.71,6.18,31.04,1014.70,2062.01,3054.05,3090.88,3348.98,350.29,332.69,8.49,0000 0000 0000 0000 000000
2014-05-02 00:21:23,0.04,0.99,0.00,14.39,21.29,22.72,6.13,31.17,1014.67,2062.00,3053.99,3090.56,3348.87,349.42,332.47,8.49,0000 0000 0000 0000 000000
2014-05-02 00:22:24,0.09,0.99,0.00,14.35,21.29,22.72,6.30,30.96,1014.67,2062.00,3053.96,3090.27,3348.60,350.56,333.65,8.50,0000 0000 0000 0000 000000
2014-05-02 00:23:24,0.11,0.99,0.00,14.34,21.29,22.71,6.13,30.96,1014.67,2062.01,3053.79,3090.16,3348.34,349.65,332.92,8.50,0000 0000 0000 0000 000000
2014-05-02 00:24:24,0.09,0.99,0.00,14.35,21.30,22.72,6.14,31.33,1014.66,2062.01,3053.39,3090.06,3348.16,349.79,332.86,8.51,0000 0000 0000 0000 000000
2014-05-02 00:25:25,0.10,0.99,0.00,14.39,21.30,22.71,6.23,31.38,1014.66,2062.00,3053.15,3090.02,3348.06,349.02,331.96,8.52,0000 0000 0000 0000 000000
2014-05-02 00:26:25,0.05,0.99,0.00,14.46,21.31,22.70,6.28,31.29,1014.66,2062.01,3053.05,3089.98,3348.02,350.87,333.84,8.52,0000 0000 0000 0000 000000
2014-05-02 00:27:25,0.03,0.99,0.00,14.54,21.31,22.68,6.36,31.33,1014.68,2062.00,3053.02,3089.98,3347.97,349.89,333.25,8.53,0000 0000 0000 0000 000000
2014-05-02 00:28:26,0.00,0.99,0.00,14.57,21.32,22.67,6.16,30.92,1014.67,2062.00,3052.99,3089.97,3347.94,350.41,333.51,8.53,0000 0000 0000 0000 000000
2014-05-02 00:29:26,0.01,0.99,0.00,14.57,21.32,22.73,6.02,31.00,1014.67,2062.00,3052.92,3089.95,3347.86,349.47,332.31,8.54,0000 0000 0000 0000 000000
2014-05-02 00:30:26,0.05,0.99,0.00,14.62,21.32,22.74,6.34,31.13,1014.66,2062.00,3052.55,3089.65,3347.62,351.35,333.73,8.54,0000 0000 0000 0000 000000
2014-05-02 00:31:26,0.15,0.99,0.00,14.67,21.32,22.78,6.17,31.08,1014.68,2062.00,3052.21,3089.31,3347.25,350.22,332.92,8.55,0000 0000 0000 0000 000000
2014-05-02 00:32:27,0.17,0.99,0.00,14.68,21.32,22.77,6.26,31.04,1014.67,2062.01,3052.07,3089.14,3347.09,350.44,333.11,8.56,0000 0000 0000 0000 000000
2014-05-02 00:33:27,0.08,0.99,0.00,14.64,21.32,22.76,6.11,31.04,1014.67,2062.00,3052.02,3089.05,3347.04,349.88,332.88,8.56,0000 0000 0000 0000 000000
2014-05-02 00:34:27,0.02,1.00,0.00,14.60,21.33,22.73,6.26,31.25,1014.69,2062.00,3051.99,3089.02,3347.01,349.44,332.25,8.57,0000 0000 0000 0000 000000
2014-05-02 00:35:28,0.01,1.00,0.00,14.54,21.34,22.76,6.13,31.04,1014.68,2062.00,3051.97,3089.00,3346.99,349.55,332.66,8.57,0000 0000 0000 0000 000000
2014-05-02 00:36:28,0.01,1.00,0.00,14.48,21.34,22.73,6.12,30.83,1014.66,2062.00,3051.82,3089.00,3346.97,349.59,333.01,8.58,0000 0000 0000 0000 000000
2014-05-02 00:37:28,0.04,1.00,0.00,14.43,21.34,22.70,6.15,31.17,1014.67,2062.00,3051.45,3089.00,3346.77,349.39,332.40,8.59,0000 0000 0000 0000 000000
2014-05-02 00:38:29,0.07,1.00,0.00,14.39,21.34,22.72,6.27,31.17,1014.68,2062.00,3051.21,3088.97,3346.55,350.44,333.44,8.59,0000 0000 0000 0000 000000
2014-05-02 00:39:29,0.07,1.00,0.00,14.39,21.34,22.74,6.31,31.08,1014.67,2062.00,3051.08,3088.89,3346.27,350.52,333.30,8.60,0000 0000 0000 0000 000000
2014-05-02 00:40:29,0.08,1.00,0.00,14.43,21.34,22.78,6.12,31.13,1014.67,2062.00,3051.03,3088.50,3346.12,349.50,332.51,8.60,0000 0000 0000 0000 000000
2014-05-02 00:41:29,0.10,1.00,0.00,14.46,21.34,22.76,6.31,31.13,1014.67,2062.00,3051.00,3088.19,3346.04,349.41,332.40,8.61,0000 0000 0000 0000 000000
2014-05-02 00:42:30,0.08,1.00,0.00,14.51,21.35,22.77,6.26,31.13,1014.67,2062.00,3050.81,3088.07,3346.01,349.91,332.81,8.61,0000 0000 0000 0000 000000
2014-05-02 00:43:30,0.06,1.00,0.00,14.55,21.36,22.89,6.05,30.96,1014.66,2062.00,3050.39,3088.02,3345.99,349.70,332.39,8.62,0000 0000 0000 0000 000000
2014-05-02 00:44:30,0.06,1.00,0.00,14.62,21.37,22.91,6.05,31.04,1014.66,2062.00,3050.15,3088.00,3345.92,348.79,331.61,8.63,0000 0000 0000 0000 000000
2014-05-02 00:45:30,0.04,1.00,0.00,14.68,21.37,22.89,6.14,30.92,1014.67,2062.00,3050.05,3088.00,3345.82,350.01,332.42,8.63,0000 0000 0000 0000 000000
2014-05-02 00:46:31,0.03,1.00,0.00,14.69,21.37,22.84,6.22,31.04,1014.68,2062.00,3050.02,3087.98,3345.45,348.95,332.07,8.64,0000 0000 0000 0000 000000
2014-05-02 00:47:31,0.05,1.00,0.00,14.72,21.37,22.78,6.20,31.00,1014.68,2062.00,3049.98,3087.91,3345.23,350.63,333.25,8.64,0000 0000 0000 0000 000000
2014-05-02 00:48:32,0.06,1.00,0.00,14.74,21.37,22.82,6.13,31.13,1014.68,2062.00,3049.78,3087.56,3345.09,348.96,331.64,8.65,0000 0000 0000 0000 000000
2014-05-02 00:49:32,0.14,1.00,0.00,14.72,21.37,22.82,6.12,30.88,1014.67,2062.00,3049.39,3087.24,3345.03,350.82,333.42,8.66,0000 0000 0000 0000 000000
2014-05-02 00:50:32,0.13,1.00,0.00,14.71,21.38,22.82,6.13,31.08,1014.68,2061.99,3049.15,3087.11,3345.00,348.89,331.64,8.66,0000 0000 0000 0000 000000
2014-05-02 00:51:32,0.05,1.00,0.00,14.61,21.39,22.85,6.17,30.92,1014.68,2061.98,3049.05,3087.05,3344.99,350.07,332.84,8.67,0000 0000 0000 0000 000000
2014-05-02 00:52:32,0.03,1.00,0.00,14.53,21.39,22.94,6.19,31.08,1014.67,2061.99,3049.02,3087.01,3344.88,349.96,332.83,8.67,0000 0000 0000 0000 000000
2014-05-02 00:53:33,0.03,1.00,0.00,14.48,21.39,22.90,6.18,31.08,1014.66,2061.99,3048.97,3087.00,3344.57,350.54,333.55,8.68,0000 0000 0000 0000 000000
2014-05-02 00:54:33,0.06,1.00,0.00,14.44,21.39,22.81,5.97,31.04,1014.66,2061.97,3048.51,3086.96,3344.22,348.57,331.69,8.69,0000 0000 0000 0000 000000
2014-05-02 00:55:33,0.10,1.00,0.00,14.46,21.39,22.80,6.16,31.00,1014.66,2061.98,3048.23,3086.88,3344.09,350.18,333.13,8.69,0000 0000 0000 0000 000000
2014-05-02 00:56:34,0.09,1.00,0.00,14.52,21.39,22.85,6.13,31.25,1014.66,2061.99,3048.08,3086.57,3344.03,349.64,332.54,8.70,0000 0000 0000 0000 000000
2014-05-02 00:57:34,0.09,1.00,0.00,14.58,21.39,22.82,6.36,31.46,1014.66,2061.98,3048.03,3086.25,3344.01,350.62,333.50,8.70,0000 0000 0000 0000 000000
2014-05-02 00:58:34,0.07,1.00,0.00,14.68,21.40,22.81,6.19,31.04,1014.66,2061.98,3048.00,3086.10,3343.98,350.69,333.07,8.71,0000 0000 0000 0000 000000
2014-05-02 00:59:34,0.03,1.00,0.00,14.72,21.40,22.84,6.10,31.00,1014.66,2061.98,3047.95,3086.05,3343.90,349.47,332.15,8.71,0000 0000 0000 0000 000000
2014-05-02 01:00:35,0.03,1.01,0.00,14.76,21.42,22.84,6.27,31.33,1014.66,2061.98,3047.68,3086.01,3343.74,349.71,332.74,8.72,0000 0000 0000 0000 000000
2014-05-02 01:01:35,0.06,1.01,0.00,14.78,21.42,22.81,6.16,31.08,1014.66,2061.97,3047.31,3085.99,3343.42,349.03,331.77,8.73,0000 0000 0000 0000 000000
2014-05-02 01:02:35,0.09,1.01,0.00,14.80,21.42,22.84,6.12,31.13,1014.67,2061.97,3047.11,3085.96,3343.17,349.35,331.94,8.73,0000 0000 0000 0000 000000
2014-05-02 01:03:36,0.06,1.01,0.00,14.78,21.42,22.95,6.09,31.21,1014.66,2061.97,3047.04,3085.94,3343.07,349.59,332.06,8.74,0000 0000 0000 0000 000000
2014-05-02 01:04:36,0.04,1.01,0.00,14.75,21.42,22.92,6.15,31.29,1014.66,2061.98,3047.00,3085.76,3343.02,350.46,332.77,8.74,0000 0000 0000 0000 000000
2014-05-02 01:05:36,0.07,1.01,0.00,14.73,21.42,22.90,6.15,31.21,1014.66,2061.98,3046.93,3085.37,3343.00,349.87,332.03,8.75,0000 0000 0000 0000 000000
2014-05-02 01:06:36,0.10,1.01,0.00,14.74,21.43,22.83,6.07,31.00,1014.66,2061.97,3046.56,3085.14,3342.96,349.65,332.30,8.76,0000 0000 0000 0000 000000
2014-05-02 01:07:37,0.10,1.01,0.00,14.63,21.44,22.86,6.28,31.00,1014.66,2061.95,3046.22,3085.05,3342.84,350.76,333.47,8.76,0000 0000 0000 0000 000000
2014-05-02 01:08:37,0.06,1.01,0.00,14.58,21.44,22.95,6.22,31.33,1014.66,2061.92,3046.08,3085.02,3342.45,350.38,333.42,8.77,0000 0000 0000 0000 000000
2014-05-02 01:09:37,0.04,1.01,0.00,14.53,21.44,22.99,6.17,31.25,1014.66,2061.91,3046.03,3085.00,3342.17,350.11,332.96,8.77,0000 0000 0000 0000 000000
2014-05-02 01:10:37,0.05,1.01,0.00,14.56,21.44,22.99,6.30,31.25,1014.68,2061.94,3045.97,3085.00,3342.07,351.21,333.99,8.78,0000 0000 0000 0000 000000
2014-05-02 01:11:38,0.04,1.01,0.00,14.63,21.44,22.98,6.33,31.13,1014.67,2061.94,3045.88,3085.00,3342.03,351.32,333.57,8.78,0000 0000 0000 0000 000000
2014-05-02 01:12:38,0.01,1.01,0.00,14.66,21.44,22.97,6.29,31.13,1014.66,2061.92,3045.49,3084.83,3342.01,349.93,332.64,8.79,0000 0000 0000 0000 000000
2014-05-02 01:13:38,0.08,1.01,0.00,14.69,21.45,23.02,6.13,31.17,1014.66,2061.86,3045.18,3084.47,3341.99,350.06,332.73,8.80,0000 0000 0000 0000 000000
2014-05-02 01:14:39,0.10,1.01,0.00,14.74,21.46,23.01,6.32,31.21,1014.66,2061.70,3045.07,3084.21,3341.81,350.80,333.31,8.80,0000 0000 0000 0000 000000
2014-05-02 01:15:39,-0.02,1.01,0.00,14.78,21.47,22.98,6.14,31.21,1014.67,2061.53,3045.01,3084.08,3341.37,350.34,332.82,8.81,0000 0000 0000 0000 000000
2014-05-02 01:16:39,-0.05,1.01,0.00,14.81,21.47,22.94,6.24,31.04,1014.67,2061.46,3044.95,3084.03,3341.15,349.92,332.52,8.81,0000 0000 0000 0000 000000
2014-05-02 01:17:40,0.01,1.01,0.00,14.82,21.47,22.95,6.18,31.21,1014.67,2061.48,3044.68,3084.01,3341.05,350.76,333.25,8.82,0000 0000 0000 0000 000000
2014-05-02 01:18:40,0.07,1.01,0.00,14.81,21.47,23.00,6.08,31.38,1014.67,2061.57,3044.36,3084.00,3341.02,348.88,331.70,8.83,0000 0000 0000 0000 000000
2014-05-02 01:19:40,0.14,1.01,0.00,14.83,21.47,22.99,6.14,31.08,1014.67,2061.70,3044.18,3084.00,3341.00,349.27,331.82,8.83,0000 0000 0000 0000 000000
2014-05-02 01:20:40,0.11,1.01,0.00,14.81,21.48,23.07,6.18,31.04,1014.66,2061.80,3044.08,3083.99,3341.00,350.59,333.10,8.84,0000 0000 0000 0000 000000
2014-05-02 01:21:41,0.07,1.01,0.00,14.80,21.49,22.98,6.13,31.13,1014.68,2061.68,3044.03,3083.71,3340.97,349.79,332.20,8.84,0000 0000 0000 0000 000000
2014-05-02 01:22:41,0.01,1.01,0.00,14.83,21.49,22.97,6.02,31.04,1014.67,2061.45,3044.00,3083.33,3340.78,348.86,331.35,8.85,0000 0000 0000 0000 000000
2014-05-02 01:23:41,-0.04,1.01,0.00,14.82,21.49,22.97,6.30,31.13,1014.69,2061.37,3043.76,3083.13,3340.45,351.32,333.79,8.85,0000 0000 0000 0000 000000
2014-05-02 01:24:42,0.03,1.01,0.00,14.71,21.49,23.01,6.24,31.38,1014.67,2061.25,3043.34,3083.04,3340.17,350.32,332.96,8.86,0000 0000 0000 0000 000000
2014-05-02 01:25:42,0.02,1.01,0.00,14.64,21.49,22.98,6.27,31.50,1014.67,2061.14,3043.12,3083.00,3340.06,350.02,332.77,8.87,0000 0000 0000 0000 000000
2014-05-02 01:26:42,-0.03,1.01,0.00,14.61,21.49,23.04,6.24,31.42,1014.67,2061.09,3043.04,3082.98,3340.02,350.28,333.03,8.87,0000 0000 0000 0000 000000
2014-05-02 01:27:42,-0.02,1.01,0.00,14.65,21.50,23.11,6.28,31.13,1014.66,2061.08,3042.96,3082.95,3340.00,350.67,333.36,8.88,0000 0000 0000 0000 000000
2014-05-02 01:28:42,0.02,1.01,0.00,14.69,21.51,23.12,6.21,31.13,1014.66,2061.05,3042.90,3082.86,3339.95,350.29,332.95,8.88,0000 0000 0000 0000 000000
2014-05-02 01:29:43,0.03,1.01,0.00,14.73,21.52,23.10,6.17,31.25,1014.66,2061.04,3042.62,3082.57,3339.87,349.18,331.86,8.89,0000 0000 0000 0000 000000
2014-05-02 01:30:43,0.12,1.01,0.00,14.77,21.52,23.02,6.28,30.96,1014.66,2061.04,3042.31,3082.24,3339.51,350.12,332.70,8.90,0000 0000 0000 0000 000000
2014-05-02 01:31:43,0.16,1.02,0.00,14.77,21.52,23.03,6.24,31.29,1014.66,2061.07,3042.12,3082.11,3339.24,350.83,333.14,8.90,0000 0000 0000 0000 000000
2014-05-02 01:32:43,0.11,1.02,0.00,14.80,21.52,23.05,6.24,31.25,1014.66,2061.07,3042.04,3082.06,3339.10,350.06,332.30,8.91,0000 0000 0000 0000 000000
2014-05-02 01:33:43,0.03,1.02,0.00,14.84,21.52,23.01,6.08,30.96,1014.66,2061.04,3042.01,3082.02,3339.03,349.02,331.58,8.91,0000 0000 0000 0000 000000
2014-05-02 01:34:44,-0.01,1.02,0.00,14.88,21.53,22.97,6.09,31.17,1014.67,2061.04,3041.97,3082.00,3339.01,349.84,332.63,8.92,0000 0000 0000 0000 000000
2014-05-02 01:35:44,0.01,1.02,0.00,14.89,21.54,22.98,6.18,31.00,1014.67,2061.04,3041.69,3081.99,3338.99,350.31,332.75,8.93,0000 0000 0000 0000 000000
2014-05-02 01:36:44,0.04,1.02,0.00,14.86,21.54,22.98,6.06,31.08,1014.66,2061.03,3041.34,3081.96,3338.98,349.39,331.87,8.93,0000 0000 0000 0000 000000
2014-05-02 01:37:45,0.06,1.02,0.00,14.85,21.54,22.97,6.22,31.21,1014.67,2061.02,3041.14,3081.77,3338.86,350.52,332.85,8.94,0000 0000 0000 0000 000000
2014-05-02 01:38:45,0.09,1.02,0.00,14.86,21.54,23.02,6.29,31.17,1014.67,2061.03,3041.05,3081.47,3338.49,350.08,332.56,8.94,0000 0000 0000 0000 000000
2014-05-02 01:39:45,0.13,1.02,0.00,14.85,21.55,23.06,6.27,31.04,1014.69,2061.03,3041.01,3081.18,3338.20,350.69,333.18,8.95,0000 0000 0000 0000 000000
2014-05-02 01:40:46,0.09,1.02,0.00,14.88,21.56,23.04,6.25,30.92,1014.68,2061.02,3040.91,3081.08,3338.07,351.21,333.23,8.95,0000 0000 0000 0000 000000
2014-05-02 01:41:46,0.06,1.02,0.00,14.82,21.57,23.05,6.12,31.00,1014.67,2061.02,3040.49,3081.03,3338.02,350.21,332.82,8.96,0000 0000 0000 0000 000000
2014-05-02 01:42:46,0.06,1.02,0.00,14.76,21.57,23.02,6.25,31.13,1014.68,2061.01,3040.20,3081.00,3338.00,350.34,332.80,8.97,0000 0000 0000 0000 000000
2014-05-02 01:43:46,0.04,1.02,0.00,14.74,21.57,23.08,6.17,31.00,1014.67,2061.00,3040.07,3080.98,3337.86,349.27,331.93,8.97,0000 0000 0000 0000 000000
2014-05-02 01:44:47,0.04,1.02,0.00,14.77,21.57,23.08,6.23,31.21,1014.67,2061.00,3040.02,3080.88,3337.50,350.16,332.73,8.98,0000 0000 0000 0000 000000
2014-05-02 01:45:47,0.08,1.02,0.00,14.83,21.58,23.12,6.17,31.25,1014.67,2061.01,3040.00,3080.61,3337.24,350.80,333.29,8.98,0000 0000 0000 0000 000000
2014-05-02 01:46:47,0.11,1.02,0.00,14.88,21.59,23.09,6.31,30.92,1014.67,2061.02,3039.94,3080.28,3337.10,351.27,333.67,8.99,0000 0000 0000 0000 000000
2014-05-02 01:47:47,0.09,1.02,0.00,14.92,21.59,23.11,6.09,30.92,1014.68,2061.01,3039.62,3080.12,3337.03,350.38,332.79,9.00,0000 0000 0000 0000 000000
2014-05-02 01:48:47,0.08,1.02,0.00,14.94,21.59,23.16,6.13,31.08,1014.67,2061.00,3039.27,3080.04,3336.99,349.36,331.78,9.00,0000 0000 0000 0000 000000
2014-05-02 01:49:48,0.06,1.02,0.00,14.96,21.59,23.15,6.31,31.08,1014.67,2061.00,3039.09,3080.01,3336.94,350.81,333.13,9.01,0000 0000 0000 0000 000000
2014-05-02 01:50:48,0.04,1.02,0.00,14.99,21.59,23.18,6.06,31.13,1014.67,2061.00,3039.03,3079.99,3336.74,348.54,330.95,9.01,0000 0000 0000 0000 000000
2014-05-02 01:51:48,0.03,1.02,0.00,15.03,21.60,23.15,6.15,31.17,1014.68,2061.00,3038.97,3079.97,3336.46,349.93,331.84,9.02,0000 0000 0000 0000 000000
2014-05-02 01:52:48,0.05,1.02,0.00,15.02,21.61,23.20,6.13,31.25,1014.66,2061.00,3038.68,3079.76,3336.18,349.54,331.86,9.02,0000 0000 0000 0000 000000
2014-05-02 01:53:49,0.14,1.02,0.00,14.95,21.62,23.19,6.17,31.13,1014.67,2061.00,3038.29,3079.36,3336.07,350.97,333.30,9.03,0000 0000 0000 0000 000000
2014-05-02 01:54:49,0.15,1.03,0.00,14.92,21.62,23.18,6.14,30.96,1014.66,2061.00,3038.11,3079.14,3336.03,348.96,331.43,9.04,0000 0000 0000 0000 000000
2014-05-02 01:55:49,0.08,1.03,0.00,14.91,21.62,23.16,6.24,31.04,1014.66,2061.00,3038.04,3079.07,3336.01,350.72,333.39,9.04,0000 0000 0000 0000 000000
2014-05-02 01:56:50,0.03,1.03,0.00,14.93,21.62,23.24,6.18,30.92,1014.66,2060.99,3037.99,3079.02,3335.94,350.14,332.53,9.05,0000 0000 0000 0000 000000
2014-05-02 01:57:50,0.01,1.03,0.00,14.93,21.63,23.28,6.21,31.33,1014.66,2060.99,3037.80,3079.00,3335.68,349.13,331.49,9.05,0000 0000 0000 0000 000000
2014-05-02 01:58:50,0.07,1.03,0.00,14.91,21.64,23.22,6.10,31.08,1014.67,2060.99,3037.48,3078.99,3335.38,350.29,332.69,9.06,0000 0000 0000 0000 000000
2014-05-02 01:59:51,0.09,1.03,0.00,14.81,21.64,23.27,6.09,31.17,1014.66,2060.99,3037.18,3078.94,3335.16,349.58,332.16,9.07,0000 0000 0000 0000 000000
2014-05-02 02:00:51,0.08,1.03,0.00,14.75,21.64,23.28,6.23,31.08,1014.68,2060.99,3037.07,3078.72,3335.07,350.30,332.97,9.07,0000 0000 0000 0000 000000
2014-05-02 02:01:51,0.09,1.03,0.00,14.78,21.65,23.31,6.16,31.17,1014.67,2060.99,3037.02,3078.32,3335.02,349.66,332.57,9.08,0000 0000 0000 0000 000000
2014-05-02 02:02:51,0.09,1.03,0.00,14.82,21.65,23.30,6.13,31.25,1014.68,2060.98,3036.94,3078.12,3335.00,349.59,332.27,9.08,0000 0000 0000 0000 000000
2014-05-02 02:03:51,0.06,1.03,0.00,14.88,21.66,23.21,6.34,31.21,1014.66,2060.98,3036.73,3078.04,3334.98,350.66,333.09,9.09,0000 0000 0000 0000 000000
2014-05-02 02:04:52,0.04,1.03,0.00,14.89,21.67,23.21,6.10,31.04,1014.68,2060.98,3036.36,3078.01,3334.82,349.73,332.20,9.10,0000 0000 0000 0000 000000
2014-05-02 02:05:52,0.08,1.03,0.00,14.91,21.67,23.21,6.41,31.08,1014.70,2060.98,3036.13,3078.00,3334.38,350.55,332.96,9.10,0000 0000 0000 0000 000000
2014-05-02 02:06:52,0.08,1.03,0.00,14.97,21.67,23.21,6.20,31.25,1014.71,2060.98,3036.05,3077.98,3334.15,349.98,332.36,9.11,0000 0000 0000 0000 000000
2014-05-02 02:07:52,0.05,1.03,0.00,15.02,21.67,23.18,6.08,31.08,1014.69,2060.97,3036.01,3077.94,3334.05,349.47,331.80,9.11,0000 0000 0000 0000 000000
2014-05-02 02:08:52,0.01,1.03,0.00,15.02,21.68,23.18,6.14,31.17,1014.68,2060.96,3035.97,3077.72,3334.02,349.69,332.02,9.12,0000 0000 0000 0000 000000
2014-05-02 02:09:53,0.07,1.03,0.00,15.06,21.69,23.20,6.27,31.13,1014.70,2060.98,3035.76,3077.33,3334.00,350.76,332.98,9.12,0000 0000 0000 0000 000000
2014-05-02 02:10:53,0.14,1.03,0.00,15.09,21.69,23.16,6.18,31.00,1014.72,2060.98,3035.35,3077.13,3333.99,349.55,331.81,9.13,0000 0000 0000 0000 000000
2014-05-02 02:11:53,0.11,1.03,0.00,15.10,21.69,23.21,6.13,31.00,1014.75,2060.98,3035.13,3077.05,3333.85,349.63,331.88,9.14,0000 0000 0000 0000 000000
2014-05-02 02:12:53,0.06,1.03,0.00,15.05,21.70,23.32,6.04,31.00,1014.72,2060.98,3035.04,3077.01,3333.52,349.24,331.56,9.14,0000 0000 0000 0000 000000
2014-05-02 02:13:54,0.06,1.03,0.00,15.01,21.71,23.32,6.12,31.00,1014.69,2060.96,3035.01,3077.00,3333.27,349.33,331.68,9.15,0000 0000 0000 0000 000000
2014-05-02 02:14:54,0.02,1.03,0.00,14.97,21.72,23.25,6.01,31.04,1014.69,2060.97,3034.95,3077.00,3333.10,348.86,331.29,9.15,0000 0000 0000 0000 000000
2014-05-02 02:15:54,0.04,1.03,0.00,14.99,21.72,23.23,6.20,30.88,1014.71,2060.97,3034.57,3076.93,3333.04,349.59,331.95,9.16,0000 0000 0000 0000 000000
2014-05-02 02:16:54,0.07,1.03,0.00,15.01,21.72,23.26,6.24,30.96,1014.70,2060.94,3034.25,3076.68,3333.01,350.66,332.27,9.17,0000 0000 0000 0000 000000
2014-05-02 02:17:54,0.11,1.03,0.00,14.99,21.72,23.26,6.17,31.08,1014.68,2060.93,3034.09,3076.32,3332.96,349.96,332.56,9.17,0000 0000 0000 0000 000000
2014-05-02 02:18:55,0.09,1.04,0.00,14.91,21.73,23.23,6.31,31.21,1014.68,2060.91,3034.02,3076.13,3332.81,349.94,331.93,9.18,0000 0000 0000 0000 000000
2014-05-02 02:19:55,0.06,1.04,0.00,14.86,21.74,23.31,6.27,31.17,1014.68,2060.84,3033.94,3076.05,3332.38,350.64,333.10,9.18,0000 0000 0000 0000 000000
2014-05-02 02:20:55,0.02,1.04,0.00,14.87,21.74,23.36,6.17,30.96,1014.71,2060.78,3033.72,3076.01,3332.15,350.30,332.77,9.19,0000 0000 0000 0000 000000
2014-05-02 02:21:55,0.00,1.04,0.00,14.93,21.74,23.36,6.09,31.17,1014.71,2060.61,3033.33,3075.99,3332.05,349.11,331.57,9.19,0000 0000 0000 0000 000000
2014-05-02 02:22:55,-0.04,1.04,0.00,14.97,21.74,23.37,6.15,31.17,1014.72,2060.48,3033.13,3075.95,3332.02,350.02,332.36,9.20,0000 0000 0000 0000 000000
2014-05-02 02:23:56,-0.04,1.04,0.00,15.01,21.75,23.38,6.18,31.17,1014.75,2060.34,3033.04,3075.57,3331.98,349.61,332.41,9.21,0000 0000 0000 0000 000000
2014-05-02 02:24:56,0.02,1.04,0.00,15.03,21.76,23.35,6.19,31.25,1014.75,2060.26,3033.00,3075.25,3331.93,350.34,332.88,9.21,0000 0000 0000 0000 000000
2014-05-02 02:25:56,0.01,1.04,0.00,15.08,21.77,23.34,6.23,31.21,1014.72,2060.15,3032.91,3075.09,3331.60,350.76,332.98,9.22,0000 0000 0000 0000 000000
2014-05-02 02:26:56,0.01,1.04,0.00,15.11,21.77,23.31,6.19,31.38,1014.74,2060.10,3032.43,3075.03,3331.24,349.55,331.79,9.22,0000 0000 0000 0000 000000
2014-05-02 02:27:57,0.10,1.04,0.00,15.18,21.77,23.28,6.25,30.96,1014.81,2060.06,3032.17,3075.01,3331.09,351.01,333.12,9.23,0000 0000 0000 0000 000000
2014-05-02 02:28:57,0.02,1.04,0.00,15.22,21.77,23.32,6.15,30.92,1014.86,2060.04,3032.07,3075.00,3331.03,349.43,331.59,9.24,0000 0000 0000 0000 000000
2014-05-02 02:29:57,0.01,1.04,0.00,15.26,21.78,23.33,6.23,30.92,1014.85,2060.05,3032.02,3074.99,3330.99,350.79,332.82,9.24,0000 0000 0000 0000 000000
2014-05-02 02:30:58,0.02,1.04,0.00,15.25,21.79,23.33,6.19,31.17,1014.81,2060.06,3031.98,3074.92,3330.99,350.07,332.15,9.25,0000 0000 0000 0000 000000
2014-05-02 02:31:58,0.04,1.04,0.00,15.19,21.79,23.36,6.17,30.92,1014.88,2060.08,3031.75,3074.57,3330.88,350.29,332.44,9.25,0000 0000 0000 0000 000000
2014-05-02 02:32:58,0.15,1.04,0.00,15.17,21.79,23.41,6.24,30.79,1014.87,2060.04,3031.39,3074.24,3330.42,350.62,332.79,9.26,0000 0000 0000 0000 000000
2014-05-02 02:33:59,0.16,1.04,0.00,15.20,21.80,23.39,6.23,30.96,1014.87,2060.03,3031.15,3074.08,3330.18,350.06,332.22,9.27,0000 0000 0000 0000 000000
2014-05-02 02:34:59,0.09,1.04,0.00,15.24,21.80,23.39,6.09,30.92,1014.86,2060.10,3031.05,3074.03,3330.07,349.67,331.80,9.27,0000 0000 0000 0000 000000
2014-05-02 02:35:59,0.09,1.04,0.00,15.24,21.81,23.40,6.20,31.08,1014.92,2060.09,3031.01,3074.01,3330.02,348.84,331.03,9.28,0000 0000 0000 0000 000000
2014-05-02 02:36:59,0.01,1.04,0.00,15.23,21.82,23.40,6.23,30.92,1014.93,2060.07,3031.00,3074.00,3330.00,350.06,332.19,9.28,0000 0000 0000 0000 000000